Tracking 35274 objects as of 11-Sep-2026
HD Live streaming from Space Station
objects crossing your sky now

COSMOS 2421 DEB


COSMOS 2421 DEB is no longer on orbit


NORAD ID: 33162
Int'l Code: 2006-026NS
Launch date: June 25, 2006
Source: Commonwealth of Independent States (former USSR) (CIS)
Launch site: TYURATAM MISSILE AND SPACE COMPLEX (TTMTR)
Decay date: 2008-08-18

Note: This is SATELLITE DEBRIS
Your satellite tracking list
Your tracking list is empty




NASA's NSSDC Master Catalog

Two Line Element Set (TLE):
1 33162U 06026NS  08230.46006052  .06961917  72497-5  31918-2 0  9992
2 33162 064.9648 230.7336 0014113 241.3887 119.6198 16.21265091  9042
Source of the keplerian elements: AFSPC